Location: Eschentzwiller
(47.7125°N, 7.3981°E)
Time: 02:06:12
(UTC+00:00)

ERBS - Visible Passes

Search period start: 27 February 2021 00:00
Search period end: 09 March 2021 00:00
Orbit: 404 x 419 km, 57.0° (Epoch: 26 February)

Date Brightness Start Highest point End Pass type
(mag) Time Alt. Az. Time Alt. Az. Time Alt. Az.
27 Feb 2.1 19:02:37 10° SW 19:05:56 81° NW 19:06:06 76° N visible
28 Feb 2.4 18:13:15 10° SW 18:16:31 55° SE 18:18:55 17° ENE visible
28 Feb 4.7 19:49:57 10° W 19:51:45 22° WNW 19:51:45 22° WNW visible
01 Mar 3.4 19:00:06 10° W 19:03:15 40° NNW 19:04:25 28° NNE visible
02 Mar 2.6 18:10:24 10° WSW 18:13:42 65° NW 18:16:59 10° NE visible
02 Mar 4.7 19:47:50 10° WNW 19:49:49 19° NNW 19:49:49 19° NNW visible
03 Mar 4.2 18:57:50 10° WNW 19:00:38 25° NNW 19:02:17 17° NNE visible
04 Mar 3.7 18:07:54 10° W 18:10:59 34° NNW 18:14:03 10° NE visible
04 Mar 4.8 19:45:38 10° NW 19:47:30 16° NNW 19:47:30 16° NNW visible
05 Mar 4.5 18:55:40 10° WNW 18:58:06 19° NNW 18:59:50 13° NNE visible
06 Mar 4.3 18:05:37 10° WNW 18:08:20 23° NNW 18:11:02 10° NE visible
06 Mar 4.8 19:43:11 10° NW 19:44:57 16° N 19:44:57 16° N visible
07 Mar 4.6 18:53:22 10° NW 18:55:34 16° N 18:57:12 12° NNE visible
07 Mar 5.7 20:29:54 10° NW 20:30:01 11° NW 20:30:01 11° NW visible
08 Mar 4.5 18:03:23 10° NW 18:05:44 18° N 18:08:06 10° NE visible
08 Mar 4.5 19:40:23 10° NW 19:42:14 18° N 19:42:14 18° N visible
